This is the latest recevied weather packets stored in our database for station/object VE8SKI. If no packets are shown the sender has not sent any weather packets the latest 10 day(s).
| Time | Temp. | Humidity | Pressure | Rain* | Wind** | Luminosity | Snow |
|---|---|---|---|---|---|---|---|
| 1777494358 | 8.89° C | 50% | 1014.7 hPa | 0 mm | 2.24 m/s, 180° | - | - |
| 1777494055 | 8.89° C | 50% | 1014.8 hPa | 0 mm | 2.68 m/s, 188° | - | - |
| 1777493756 | 8.89° C | 51% | 1014.8 hPa | 0 mm | 2.68 m/s, 132° | - | - |
| 1777493456 | 8.33° C | 52% | 1014.9 hPa | 0 mm | 1.79 m/s, 172° | - | - |
| 1777493157 | 8.33° C | 52% | 1015 hPa | 0 mm | 2.68 m/s, 117° | - | - |
| 1777492857 | 8.33° C | 53% | 1015 hPa | 0 mm | 2.68 m/s, 94° | - | - |
| 1777492558 | 7.78° C | 53% | 1014.9 hPa | 0 mm | 2.68 m/s, 194° | - | - |
| 1777492255 | 7.78° C | 53% | 1015 hPa | 0 mm | 2.68 m/s, 188° | - | - |
| 1777491956 | 7.78° C | 53% | 1014.9 hPa | 0 mm | 3.13 m/s, 166° | - | - |
| 1777491656 | 7.78° C | 54% | 1014.8 hPa | 0 mm | 2.68 m/s, 201° | - | - |
| 1777491357 | 7.78° C | 54% | 1014.9 hPa | 0 mm | 1.79 m/s, 141° | - | - |
| 1777491057 | 7.78° C | 54% | 1014.9 hPa | 0 mm | 2.68 m/s, 179° | - | - |
| 1777490758 | 7.78° C | 53% | 1015.1 hPa | 0 mm | 2.24 m/s, 98° | - | - |
| 1777490455 | 7.78° C | 53% | 1015.4 hPa | 0 mm | 2.68 m/s, 125° | - | - |
| 1777490156 | 7.78° C | 54% | 1015.4 hPa | 0 mm | 2.24 m/s, 172° | - | - |
| 1777489856 | 8.33° C | 53% | 1015.4 hPa | 0 mm | 1.79 m/s, 210° | - | - |
| 1777489556 | 7.78° C | 54% | 1015.4 hPa | 0 mm | 1.79 m/s, 141° | - | - |
| 1777489257 | 7.78° C | 53% | 1015.5 hPa | 0 mm | 2.68 m/s, 136° | - | - |
| 1777488957 | 7.78° C | 53% | 1015.5 hPa | 0 mm | 2.24 m/s, 186° | - | - |
| 1777488655 | 7.78° C | 54% | 1015.6 hPa | 0 mm | 1.79 m/s, 158° | - | - |
| 1777488356 | 7.78° C | 54% | 1015.6 hPa | 0 mm | 1.79 m/s, 152° | - | - |
| 1777488056 | 7.22° C | 55% | 1015.6 hPa | 0 mm | 3.13 m/s, 165° | - | - |
| 1777487756 | 7.22° C | 55% | 1015.6 hPa | 0 mm | 3.13 m/s, 195° | - | - |
| 1777487457 | 7.22° C | 56% | 1015.6 hPa | 0 mm | 1.79 m/s, 215° | - | - |
| 1777487157 | 7.22° C | 56% | 1015.7 hPa | 0 mm | 2.24 m/s, 211° | - | - |
* Rain latest hour (hover to see other rain measurements)
** Current wind speed in m/s (hover to see current wind gust speed)